Find Yaogan 36 05 zu 03 xing

NORAD ID: 57456 Int'l Des: 2023-106 Owner: ZZB Country: CN Constellation: yaogan operational
LEOCIRCULAR

Live-Position

3D-Globus wird geladen...

Über Yaogan 36 05 zu 03 xing

Beschreibung wird geladen...

Nächste Überflüge

Passes for default location (London). Set your location on the main map for personalized predictions.

Höhenverlauf

Loading altitude history...

Zweizeiliger Elementsatz

1 57456U 23106E 26106.26278223 .00002491 00000-0 12223-3 0 9995
2 57456 34.9926 106.7191 0009147 160.7193 199.3867 15.17720883151456
Epoch: 16. Apr. 2026 • Age: 10 hours

Aktueller Status

Höhe 514.6 km
Geschwindigkeit 7.61 km/s
Subsatellitenpunkt 24.96°N, 61.01°E
Startdatum 26. Juli 2023
Alter 2.7 years
Typ military

Technische Details

Klassifizierung Payload
Masse 300.00 kg
Trockenmasse 300.00 kg
Gesamtmasse 300.00 kg
Länge 2.50 m
Durchmesser 2.50 m
Spannweite 5.00 m
Form Box + 2 Pan
Hersteller DFHZ
Phasenstatus In Orbit
Besitzer/Staat ZZB/CN

Most Searched